User: anonymous   Login
Location: Caltech
(34.1382°N, 118.1253°W)
Time: 18:24:44
(UTC-07:00)
Language:

Cosmos 44 Rocket - Orbit

View from above orbital plane
View from above orbital plane
View from above satellite
View from above satellite

Ground track
Ground track

The orbit data is extracted from the following two-line orbital elements,

1 00877U 64053B   16122.85147426 -.00000007  00000-0  23712-4 0  9996
2 00877  65.0789  54.1750 0083664 271.8837  87.2681 14.59235970741496
Epoch (UTC): 01 May 2016 20:26:07
Eccentricity: 0.0083664
inclination: 65.0789°
perigee height: 636 km
apogee height: 755 km
right ascension of ascending node: 54.1750°
argument of perigee: 271.8837°
revolutions per day: 14.59235970
mean anomaly at epoch: 87.2681°
orbit number at epoch: 74149

The dashed part of the orbit path shows where the satellite is in the earth's shadow,  

DLR